Tracking 17938 objects as of 24-February-2017
HD Live streaming from Space Station
objects crossing your sky now

VANGUARD R/B

Track VANGUARD R/B now!
10-day predictions


NORAD ID: 12
Int'l Code: 1959-001B
Perigee: 560.5 km
Apogee: 3,336.0 km
Inclination: 32.9 °
Period: 125.9 minutes
Semi major axis: 8319 km
RCS: 0.5381 m2 (medium)
Launch date: February 17, 1959
Source: United States (US)
Launch site: AIR FORCE EASTERN TEST RANGE (AFETR)

Note: This is a ROCKET BODY
Your satellite tracking list
Your tracking list is empty





NASA's NSSDC Master Catalog

Two Line Element Set (TLE):
1 00012U 59001B   17054.99082798  .00000283  00000-0  14937-3 0  9997
2 00012  32.9026 262.0110 1668093 198.0567 155.3046 11.44127398383983
Source of the keplerian elements: AFSPC